Location: Cran-Gévrier
(45.9039°N, 6.1012°E)
Time: 11:32:47
(UTC+00:00)

Cosmos 2278 Rocket - Pass Details

Date: 09 February 2023
Orbit: 841 x 845 km, 71.0° (Epoch: 21 March)

Event Time Altitude Azimuth Distance (km) Brightness Sun altitude
Rises 18:28:38 0° 335° (NNW) 3,415 5.6 -17.1°
Reaches altitude 10° 18:31:07 10° 338° (NNW) 2,475 4.9 -17.5°
Maximum altitude 18:36:46 65° 61° (ENE) 926 2.1 -18.5°
Enters shadow 18:40:54 19° 140° (SE) 1,922 3.7 -19.2°
